TimeEDT,TemperatureF,Dew PointF,Humidity,Sea Level PressureIn,VisibilityMPH,Wind Direction,Wind SpeedMPH,Gust SpeedMPH,PrecipitationIn,Events,Conditions,WindDirDegrees,DateUTC
12:53 AM,57.0,48.0,72,29.83,10.0,West,5.8,-,N/A,,Clear,270,2012-10-19 04:53:00
1:53 AM,55.9,46.9,72,29.83,10.0,WNW,4.6,-,N/A,,Clear,290,2012-10-19 05:53:00
2:53 AM,55.0,45.0,69,29.83,10.0,WNW,4.6,-,N/A,,Clear,290,2012-10-19 06:53:00
3:53 AM,52.0,45.0,77,29.82,10.0,WSW,4.6,-,N/A,,Clear,250,2012-10-19 07:53:00
4:53 AM,53.1,44.1,71,29.80,10.0,West,6.9,-,N/A,,Clear,270,2012-10-19 08:53:00
5:53 AM,52.0,41.0,66,29.81,10.0,West,5.8,-,N/A,,Clear,270,2012-10-19 09:53:00
6:53 AM,48.9,41.0,74,29.82,10.0,WSW,3.5,-,N/A,,Clear,240,2012-10-19 10:53:00
7:53 AM,48.0,39.9,74,29.83,10.0,Calm,Calm,-,N/A,,Clear,0,2012-10-19 11:53:00
8:53 AM,52.0,42.1,69,29.83,10.0,Calm,Calm,-,N/A,,Clear,0,2012-10-19 12:53:00
9:53 AM,57.0,44.1,62,29.83,10.0,West,6.9,-,N/A,,Clear,260,2012-10-19 13:53:00
10:53 AM,60.1,39.9,47,29.82,10.0,West,8.1,-,N/A,,Clear,260,2012-10-19 14:53:00
11:53 AM,64.0,37.0,37,29.82,10.0,WSW,13.8,19.6,N/A,,Clear,250,2012-10-19 15:53:00
12:53 PM,66.9,32.0,27,29.81,10.0,WSW,13.8,-,N/A,,Clear,250,2012-10-19 16:53:00
1:53 PM,68.0,28.9,23,29.79,10.0,WSW,12.7,25.3,N/A,,Clear,250,2012-10-19 17:53:00
2:53 PM,69.1,30.0,23,29.76,10.0,West,17.3,25.3,N/A,,Clear,260,2012-10-19 18:53:00
3:53 PM,70.0,30.0,23,29.75,10.0,WSW,17.3,25.3,N/A,,Clear,250,2012-10-19 19:53:00
4:53 PM,69.1,30.0,23,29.75,10.0,WSW,16.1,23.0,N/A,,Clear,250,2012-10-19 20:53:00
5:53 PM,66.9,32.0,27,29.75,10.0,WSW,9.2,-,N/A,,Clear,250,2012-10-19 21:53:00
6:53 PM,63.0,35.1,35,29.76,10.0,SW,5.8,-,N/A,,Clear,230,2012-10-19 22:53:00
7:53 PM,59.0,37.0,44,29.79,10.0,SW,3.5,-,N/A,,Clear,220,2012-10-19 23:53:00
8:53 PM,55.9,37.9,51,29.81,10.0,WSW,4.6,-,N/A,,Clear,250,2012-10-20 00:53:00
9:53 PM,55.0,37.9,53,29.82,10.0,WSW,3.5,-,N/A,,Clear,250,2012-10-20 01:53:00
10:53 PM,55.0,36.0,49,29.82,10.0,Calm,Calm,-,N/A,,Clear,0,2012-10-20 02:53:00
11:53 PM,52.0,37.9,59,29.83,10.0,West,4.6,-,N/A,,Clear,270,2012-10-20 03:53:00